| time (UTC) | temp F | wind direction | speed MPH | gust MPH | rain 1hr in | rain 24hr in | rain mn in | humidity % | barometer mb |
| 20260510220155 | 70 | 0 | 2.0 | 9.0 | 0.00 | 0.16 | 0.01 | 33 | 1018.9 |
| 20260510215649 | 70 | 333 | 3.0 | 10.0 | 0.00 | 0.16 | 0.01 | 33 | 1018.9 |
| 20260510215412 | 70 | 226 | 2.0 | 10.0 | 0.00 | 0.16 | 0.01 | 35 | 1018.9 |
| 20260510214637 | 70 | 224 | 2.0 | 5.0 | 0.00 | 0.16 | 0.01 | 35 | 1018.8 |
| 20260510214130 | 69 | 215 | 2.0 | 6.0 | 0.00 | 0.16 | 0.01 | 35 | 1018.8 |
| 20260510213625 | 69 | 325 | 1.0 | 6.0 | 0.00 | 0.16 | 0.01 | 35 | 1018.9 |
| 20260510213119 | 69 | 296 | 2.0 | 6.0 | 0.00 | 0.16 | 0.01 | 34 | 1018.9 |
| 20260510212612 | 69 | 265 | 2.0 | 8.0 | 0.00 | 0.16 | 0.01 | 34 | 1018.9 |
| 20260510212106 | 70 | 236 | 2.0 | 8.0 | 0.00 | 0.16 | 0.01 | 33 | 1018.9 |
| 20260510211601 | 70 | 321 | 2.0 | 7.0 | 0.00 | 0.16 | 0.01 | 32 | 1018.9 |
| 20260510211055 | 70 | 308 | 2.0 | 6.0 | 0.00 | 0.16 | 0.01 | 34 | 1019.0 |
| 20260510210549 | 70 | 244 | 2.0 | 7.0 | 0.00 | 0.16 | 0.01 | 36 | 1019.0 |
| 20260510210043 | 70 | 174 | 2.0 | 7.0 | 0.00 | 0.16 | 0.01 | 34 | 1019.1 |
| 20260510205537 | 70 | 199 | 2.0 | 7.0 | 0.00 | 0.16 | 0.01 | 35 | 1019.2 |
| 20260510205519 | 70 | 224 | 2.0 | 7.0 | 0.00 | 0.16 | 0.01 | 34 | 1019.0 |
| 20260510204524 | 70 | 355 | 2.0 | 7.0 | 0.00 | 0.16 | 0.01 | 33 | 1019.0 |
| 20260510204018 | 70 | 215 | 1.0 | 4.0 | 0.00 | 0.16 | 0.01 | 40 | 1018.9 |
| 20260510203513 | 70 | 232 | 2.0 | 5.0 | 0.00 | 0.16 | 0.01 | 38 | 1018.8 |
| 20260510203007 | 70 | 205 | 2.0 | 6.0 | 0.00 | 0.16 | 0.01 | 38 | 1018.8 |
| 20260510202501 | 70 | 250 | 3.0 | 9.0 | 0.00 | 0.16 | 0.01 | 40 | 1018.9 |
| 20260510201956 | 70 | 210 | 3.0 | 11.0 | 0.00 | 0.16 | 0.01 | 38 | 1019.0 |
| 20260510201449 | 70 | 173 | 3.0 | 11.0 | 0.00 | 0.16 | 0.01 | 36 | 1018.9 |
| 20260510200943 | 69 | 219 | 2.0 | 10.0 | 0.00 | 0.16 | 0.01 | 39 | 1018.8 |
| 20260510200436 | 69 | 295 | 2.0 | 7.0 | 0.00 | 0.16 | 0.01 | 38 | 1018.9 |
| 20260510195930 | 69 | 241 | 2.0 | 8.0 | 0.00 | 0.16 | 0.01 | 38 | 1019.0 |
| 20260510195431 | 70 | 327 | 1.0 | 8.0 | 0.00 | 0.16 | 0.01 | 39 | 1018.9 |
| 20260510194931 | 69 | 117 | 2.0 | 10.0 | 0.00 | 0.16 | 0.01 | 41 | 1018.9 |
| 20260510194431 | 69 | 249 | 3.0 | 10.0 | 0.00 | 0.16 | 0.01 | 41 | 1019.0 |
| 20260510193929 | 69 | 223 | 2.0 | 8.0 | 0.00 | 0.16 | 0.01 | 39 | 1019.0 |
| 20260510193430 | 69 | 322 | 2.0 | 5.0 | 0.00 | 0.16 | 0.01 | 37 | 1019.0 |
| 20260510192929 | 69 | 338 | 2.0 | 6.0 | 0.00 | 0.16 | 0.01 | 39 | 1019.1 |
| 20260510192431 | 69 | 219 | 2.0 | 6.0 | 0.00 | 0.16 | 0.01 | 39 | 1019.1 |
| 20260510191931 | 68 | 252 | 2.0 | 6.0 | 0.00 | 0.16 | 0.01 | 40 | 1019.1 |
| 20260510191647 | 67 | 280 | 2.0 | 6.0 | 0.00 | 0.16 | 0.01 | 40 | 1019.1 |
| 20260510190925 | 67 | 323 | 1.0 | 4.0 | 0.00 | 0.16 | 0.01 | 39 | 1019.0 |
| 20260510190427 | 67 | 251 | 2.0 | 9.0 | 0.00 | 0.16 | 0.01 | 38 | 1019.1 |
| 20260510185925 | 68 | 346 | 2.0 | 9.0 | 0.00 | 0.16 | 0.01 | 38 | 1019.1 |
| 20260510185426 | 69 | 336 | 2.0 | 8.0 | 0.00 | 0.16 | 0.01 | 35 | 1019.0 |
| 20260510184923 | 69 | 207 | 2.0 | 8.0 | 0.00 | 0.16 | 0.01 | 36 | 1019.0 |
| 20260510184423 | 70 | 229 | 2.0 | 7.0 | 0.00 | 0.16 | 0.01 | 36 | 1018.9 |
| 20260510184417 | 70 | 270 | 3.0 | 9.0 | 0.00 | 0.16 | 0.01 | 36 | 1018.9 |
| 20260510183647 | 70 | 198 | 3.0 | 9.0 | 0.00 | 0.16 | 0.01 | 37 | 1018.9 |
| 20260510182922 | 69 | 207 | 3.0 | 8.0 | 0.00 | 0.16 | 0.01 | 38 | 1018.9 |
| 20260510182911 | 69 | 332 | 3.0 | 8.0 | 0.00 | 0.16 | 0.01 | 39 | 1018.8 |
| 20260510182140 | 69 | 212 | 3.0 | 9.0 | 0.00 | 0.16 | 0.01 | 39 | 1018.8 |
| 20260510181646 | 68 | 0 | 3.0 | 9.0 | 0.00 | 0.16 | 0.01 | 41 | 1018.7 |
| 20260510180923 | 68 | 236 | 3.0 | 7.0 | 0.00 | 0.16 | 0.01 | 43 | 1018.7 |
| 20260510180417 | 68 | 241 | 2.0 | 10.0 | 0.00 | 0.16 | 0.01 | 41 | 1018.8 |
| 20260510175917 | 67 | 260 | 2.0 | 10.0 | 0.00 | 0.16 | 0.01 | 46 | 1018.8 |
| 20260510175645 | 65 | 282 | 1.0 | 4.0 | 0.00 | 0.16 | 0.01 | 50 | 1018.8 |
| 20260510174919 | 65 | 0 | 1.0 | 8.0 | 0.00 | 0.16 | 0.01 | 45 | 1018.9 |
| 20260510174643 | 65 | 0 | 2.0 | 8.0 | 0.00 | 0.16 | 0.01 | 45 | 1019.0 |
| 20260510173916 | 65 | 0 | 2.0 | 5.0 | 0.00 | 0.16 | 0.01 | 44 | 1018.9 |
| 20260510173905 | 65 | 0 | 2.0 | 5.0 | 0.00 | 0.16 | 0.01 | 44 | 1019.0 |
| 20260510173358 | 65 | 0 | 2.0 | 7.0 | 0.00 | 0.16 | 0.01 | 40 | 1019.0 |
| 20260510172415 | 66 | 302 | 3.0 | 9.0 | 0.00 | 0.16 | 0.01 | 40 | 1019.2 |
| 20260510172133 | 66 | 342 | 3.0 | 9.0 | 0.00 | 0.16 | 0.01 | 40 | 1019.2 |
| 20260510171639 | 66 | 130 | 3.0 | 9.0 | 0.00 | 0.16 | 0.01 | 42 | 1019.2 |
| 20260510171135 | 66 | 281 | 2.0 | 9.0 | 0.00 | 0.16 | 0.01 | 44 | 1019.2 |
| 20260510170408 | 65 | 320 | 2.0 | 6.0 | 0.00 | 0.16 | 0.01 | 49 | 1019.2 |
| 20260510165902 | 64 | 0 | 1.0 | 5.0 | 0.00 | 0.16 | 0.01 | 53 | 1019.4 |
| 20260510165356 | 64 | 0 | 1.0 | 4.0 | 0.00 | 0.16 | 0.01 | 55 | 1019.4 |
| 20260510164849 | 63 | 0 | 1.0 | 4.0 | 0.00 | 0.16 | 0.01 | 57 | 1019.4 |
| 20260510164344 | 63 | 0 | 1.0 | 8.0 | 0.00 | 0.16 | 0.01 | 54 | 1019.4 |
| 20260510163838 | 63 | 0 | 1.0 | 8.0 | 0.00 | 0.16 | 0.01 | 54 | 1019.4 |
| 20260510163332 | 64 | 0 | 1.0 | 4.0 | 0.00 | 0.16 | 0.01 | 56 | 1019.2 |
| 20260510162826 | 64 | 0 | 1.0 | 4.0 | 0.00 | 0.16 | 0.01 | 55 | 1019.4 |
| 20260510162321 | 64 | 329 | 2.0 | 5.0 | 0.00 | 0.16 | 0.01 | 54 | 1019.5 |
| 20260510161813 | 65 | 302 | 2.0 | 6.0 | 0.00 | 0.16 | 0.01 | 50 | 1019.6 |
| 20260510161308 | 65 | 327 | 2.0 | 7.0 | 0.00 | 0.16 | 0.01 | 56 | 1019.5 |
| 20260510160802 | 65 | 193 | 2.0 | 7.0 | 0.00 | 0.16 | 0.01 | 57 | 1019.6 |
| 20260510160256 | 64 | 307 | 3.0 | 9.0 | 0.00 | 0.16 | 0.01 | 56 | 1019.7 |
| 20260510155750 | 63 | 317 | 2.0 | 9.0 | 0.00 | 0.16 | 0.01 | 59 | 1019.7 |
| 20260510155244 | 62 | 0 | 2.0 | 5.0 | 0.00 | 0.16 | 0.01 | 62 | 1019.6 |
| 20260510154738 | 61 | 0 | 2.0 | 6.0 | 0.00 | 0.16 | 0.01 | 60 | 1019.6 |
| 20260510154232 | 61 | 213 | 2.0 | 8.0 | 0.00 | 0.16 | 0.01 | 56 | 1019.6 |
| 20260510153726 | 62 | 325 | 2.0 | 8.0 | 0.00 | 0.16 | 0.01 | 58 | 1019.4 |
| 20260510153220 | 62 | 324 | 2.0 | 5.0 | 0.00 | 0.16 | 0.01 | 62 | 1019.2 |
| 20260510152714 | 62 | 211 | 2.0 | 7.0 | 0.00 | 0.16 | 0.01 | 60 | 1019.1 |
| 20260510152427 | 61 | 355 | 2.0 | 7.0 | 0.00 | 0.16 | 0.01 | 58 | 1019.0 |
| 20260510151702 | 62 | 152 | 2.0 | 7.0 | 0.00 | 0.16 | 0.01 | 60 | 1018.8 |
| 20260510151156 | 61 | 236 | 1.0 | 4.0 | 0.00 | 0.16 | 0.01 | 62 | 1018.9 |
| 20260510150650 | 61 | 321 | 1.0 | 6.0 | 0.00 | 0.16 | 0.01 | 62 | 1018.8 |
| 20260510150144 | 61 | 0 | 2.0 | 6.0 | 0.00 | 0.16 | 0.01 | 60 | 1018.9 |
| 20260510145638 | 61 | 0 | 2.0 | 7.0 | 0.00 | 0.16 | 0.01 | 59 | 1018.8 |
| 20260510145357 | 61 | 264 | 3.0 | 7.0 | 0.00 | 0.16 | 0.01 | 61 | 1018.8 |
| 20260510144627 | 60 | 224 | 2.0 | 7.0 | 0.00 | 0.16 | 0.01 | 61 | 1018.8 |
| 20260510144120 | 60 | 219 | 1.0 | 8.0 | 0.00 | 0.16 | 0.01 | 62 | 1018.7 |
| 20260510143614 | 60 | 236 | 2.0 | 8.0 | 0.00 | 0.16 | 0.01 | 62 | 1018.5 |
| 20260510143107 | 60 | 0 | 3.0 | 10.0 | 0.00 | 0.16 | 0.01 | 62 | 1018.4 |
| 20260510142834 | 60 | 281 | 2.0 | 10.0 | 0.00 | 0.16 | 0.01 | 63 | 1018.4 |
| 20260510142055 | 60 | 207 | 2.0 | 6.0 | 0.00 | 0.16 | 0.01 | 63 | 1018.3 |
| 20260510141550 | 59 | 242 | 2.0 | 6.0 | 0.00 | 0.16 | 0.01 | 63 | 1018.1 |
| 20260510141044 | 59 | 246 | 2.0 | 5.0 | 0.00 | 0.16 | 0.01 | 64 | 1018.1 |
| 20260510140538 | 59 | 261 | 1.0 | 5.0 | 0.00 | 0.16 | 0.01 | 65 | 1017.9 |
| 20260510140032 | 59 | 265 | 1.0 | 4.0 | 0.00 | 0.16 | 0.01 | 66 | 1018.0 |
| 20260510135525 | 58 | 234 | 1.0 | 4.0 | 0.00 | 0.16 | 0.01 | 67 | 1018.0 |
| 20260510135020 | 58 | 74 | 1.0 | 6.0 | 0.00 | 0.16 | 0.01 | 67 | 1018.1 |
| 20260510134514 | 58 | 225 | 1.0 | 6.0 | 0.00 | 0.16 | 0.01 | 66 | 1018.0 |
| 20260510134008 | 57 | 250 | 1.0 | 8.0 | 0.00 | 0.16 | 0.01 | 68 | 1018.0 |
| 20260510133501 | 57 | 242 | 1.0 | 8.0 | 0.00 | 0.16 | 0.01 | 69 | 1018.0 |
| 20260510132956 | 57 | 223 | 1.0 | 6.0 | 0.00 | 0.16 | 0.01 | 70 | 1018.0 |
| 20260510132450 | 57 | 277 | 2.0 | 5.0 | 0.00 | 0.16 | 0.01 | 73 | 1018.0 |
| 20260510131944 | 56 | 223 | 2.0 | 5.0 | 0.00 | 0.16 | 0.01 | 75 | 1018.0 |
| 20260510131438 | 56 | 233 | 1.0 | 5.0 | 0.00 | 0.16 | 0.01 | 76 | 1017.9 |
| 20260510131158 | 56 | 258 | 1.0 | 5.0 | 0.00 | 0.16 | 0.01 | 79 | 1017.7 |
| 20260510130426 | 56 | 229 | 1.0 | 5.0 | 0.00 | 0.16 | 0.01 | 81 | 1017.7 |
| 20260510125920 | 56 | 208 | 1.0 | 3.0 | 0.00 | 0.16 | 0.01 | 82 | 1017.6 |
| 20260510125414 | 55 | 318 | 1.0 | 7.0 | 0.00 | 0.16 | 0.01 | 83 | 1017.5 |
| 20260510124908 | 55 | 250 | 1.0 | 7.0 | 0.00 | 0.16 | 0.01 | 83 | 1017.5 |
| 20260510124402 | 55 | 231 | 1.0 | 2.0 | 0.00 | 0.16 | 0.01 | 85 | 1017.3 |
| 20260510123856 | 55 | 302 | 1.0 | 3.0 | 0.00 | 0.16 | 0.01 | 86 | 1017.1 |
| 20260510123350 | 55 | 306 | 0.0 | 3.0 | 0.00 | 0.16 | 0.01 | 87 | 1017.1 |
| 20260510122843 | 55 | 259 | 0.0 | 3.0 | 0.00 | 0.16 | 0.01 | 88 | 1017.1 |
| 20260510122344 | 55 | 258 | 0.0 | 3.0 | 0.00 | 0.16 | 0.01 | 89 | 1017.0 |
| 20260510121841 | 55 | 240 | 0.0 | 1.0 | 0.00 | 0.16 | 0.01 | 89 | 1016.9 |
| 20260510121340 | 54 | 240 | 0.0 | 1.0 | 0.00 | 0.16 | 0.01 | 89 | 1017.0 |
| 20260510120842 | 53 | 240 | 0.0 | 3.0 | 0.00 | 0.16 | 0.01 | 89 | 1017.0 |
| 20260510120341 | 53 | 257 | 0.0 | 3.0 | 0.00 | 0.16 | 0.01 | 89 | 1016.8 |
| 20260510115841 | 53 | 194 | 0.0 | 1.0 | 0.00 | 0.16 | 0.01 | 89 | 1016.8 |
| 20260510115342 | 53 | 194 | 0.0 | 1.0 | 0.00 | 0.16 | 0.01 | 89 | 1016.6 |
| 20260510115106 | 53 | 194 | 0.0 | 1.0 | 0.00 | 0.16 | 0.01 | 89 | 1016.4 |
| 20260510114339 | 53 | 194 | 0.0 | 1.0 | 0.00 | 0.16 | 0.01 | 89 | 1016.4 |
| 20260510113838 | 53 | 194 | 0.0 | 1.0 | 0.00 | 0.16 | 0.01 | 89 | 1016.2 |
| 20260510113334 | 53 | 194 | 0.0 | 1.0 | 0.00 | 0.16 | 0.01 | 89 | 1016.2 |
| 20260510112835 | 53 | 190 | 0.0 | 1.0 | 0.00 | 0.16 | 0.01 | 88 | 1015.9 |
| 20260510112334 | 53 | 235 | 0.0 | 1.0 | 0.00 | 0.16 | 0.01 | 88 | 1015.8 |
| 20260510111833 | 53 | 235 | 0.0 | 1.0 | 0.00 | 0.16 | 0.01 | 88 | 1015.6 |
| 20260510111334 | 53 | 342 | 0.0 | 2.0 | 0.00 | 0.16 | 0.01 | 89 | 1015.6 |
| 20260510110831 | 53 | 342 | 0.0 | 2.0 | 0.00 | 0.16 | 0.01 | 89 | 1015.5 |
| 20260510110330 | 54 | 227 | 0.0 | 2.0 | 0.00 | 0.16 | 0.01 | 88 | 1015.4 |
| 20260510105830 | 54 | 240 | 0.0 | 2.0 | 0.00 | 0.16 | 0.01 | 88 | 1015.3 |
| 20260510105555 | 54 | 292 | 0.0 | 2.0 | 0.00 | 0.16 | 0.01 | 88 | 1015.1 |
| 20260510105054 | 54 | 292 | 0.0 | 2.0 | 0.00 | 0.16 | 0.01 | 88 | 1015.1 |
| 20260510104330 | 54 | 225 | 0.0 | 1.0 | 0.00 | 0.16 | 0.01 | 88 | 1015.0 |
| 20260510103832 | 54 | 225 | 0.0 | 3.0 | 0.00 | 0.16 | 0.01 | 88 | 1015.0 |
| 20260510103331 | 54 | 225 | 0.0 | 3.0 | 0.00 | 0.16 | 0.01 | 88 | 1015.0 |
| 20260510103053 | 54 | 191 | 0.0 | 0.0 | 0.00 | 0.16 | 0.01 | 88 | 1014.9 |
| 20260510102331 | 54 | 191 | 0.0 | 0.0 | 0.00 | 0.16 | 0.01 | 88 | 1014.8 |
| 20260510101832 | 54 | 191 | 0.0 | 0.0 | 0.00 | 0.16 | 0.01 | 88 | 1014.5 |
| 20260510101331 | 54 | 191 | 0.0 | 0.0 | 0.00 | 0.16 | 0.01 | 88 | 1014.5 |
| 20260510100832 | 54 | 191 | 0.0 | 2.0 | 0.00 | 0.16 | 0.01 | 88 | 1014.5 |
| 20260510100331 | 54 | 95 | 0.0 | 2.0 | 0.00 | 0.16 | 0.01 | 88 | 1014.6 |
| 20260510100105 | 54 | 250 | 0.0 | 1.0 | 0.00 | 0.16 | 0.01 | 88 | 1014.4 |
| 20260510095330 | 54 | 250 | 0.0 | 1.0 | 0.00 | 0.16 | 0.01 | 88 | 1014.3 |
| 20260510095055 | 55 | 250 | 0.0 | 0.0 | 0.00 | 0.16 | 0.01 | 88 | 1014.5 |
| 20260510094330 | 55 | 250 | 0.0 | 0.0 | 0.00 | 0.16 | 0.01 | 88 | 1014.4 |
| 20260510093825 | 55 | 250 | 0.0 | 0.0 | 0.00 | 0.16 | 0.01 | 88 | 1014.4 |
| 20260510093319 | 55 | 250 | 0.0 | 0.0 | 0.00 | 0.16 | 0.01 | 88 | 1014.2 |
| 20260510092813 | 55 | 250 | 0.0 | 0.0 | 0.00 | 0.16 | 0.01 | 88 | 1014.2 |
| 20260510092307 | 55 | 250 | 0.0 | 0.0 | 0.00 | 0.16 | 0.01 | 88 | 1014.1 |
| 20260510091800 | 55 | 250 | 0.0 | 0.0 | 0.00 | 0.16 | 0.01 | 88 | 1014.2 |
| 20260510091255 | 55 | 250 | 0.0 | 0.0 | 0.00 | 0.16 | 0.01 | 88 | 1014.1 |
| 20260510090749 | 56 | 250 | 0.0 | 0.0 | 0.00 | 0.16 | 0.01 | 88 | 1013.9 |
| 20260510090242 | 56 | 250 | 0.0 | 0.0 | 0.00 | 0.16 | 0.01 | 88 | 1013.8 |
| 20260510085737 | 56 | 250 | 0.0 | 0.0 | 0.00 | 0.16 | 0.01 | 88 | 1013.7 |
| 20260510085231 | 56 | 250 | 0.0 | 0.0 | 0.00 | 0.16 | 0.01 | 88 | 1013.6 |
| 20260510084725 | 56 | 250 | 0.0 | 0.0 | 0.00 | 0.16 | 0.01 | 88 | 1013.5 |
| 20260510084219 | 56 | 250 | 0.0 | 0.0 | 0.00 | 0.16 | 0.01 | 88 | 1013.4 |
| 20260510083713 | 56 | 250 | 0.0 | 0.0 | 0.00 | 0.16 | 0.01 | 88 | 1013.3 |
| 20260510083207 | 57 | 250 | 0.0 | 0.0 | 0.00 | 0.16 | 0.01 | 88 | 1013.2 |
| 20260510082858 | 57 | 250 | 0.0 | 0.0 | 0.00 | 0.16 | 0.01 | 88 | 1013.0 |
| 20260510082744 | 57 | 250 | 0.0 | 0.0 | 0.00 | 0.16 | 0.01 | 88 | 1013.1 |
| 20260510081649 | 57 | 250 | 0.0 | 0.0 | 0.00 | 0.16 | 0.01 | 88 | 1013.0 |
| 20260510081143 | 57 | 250 | 0.0 | 0.0 | 0.00 | 0.16 | 0.01 | 88 | 1012.7 |
| 20260510080637 | 58 | 250 | 0.0 | 0.0 | 0.00 | 0.16 | 0.01 | 88 | 1012.7 |
| 20260510080131 | 58 | 250 | 0.0 | 0.0 | 0.00 | 0.16 | 0.01 | 88 | 1012.6 |
| 20260510080115 | 58 | 250 | 0.0 | 0.0 | 0.00 | 0.16 | 0.01 | 88 | 1012.4 |
| 20260510075118 | 58 | 250 | 0.0 | 0.0 | 0.00 | 0.17 | 0.01 | 88 | 1012.3 |
| 20260510074613 | 58 | 250 | 0.0 | 0.0 | 0.00 | 0.17 | 0.01 | 88 | 1012.3 |
| 20260510074107 | 59 | 250 | 0.0 | 0.0 | 0.00 | 0.17 | 0.01 | 88 | 1012.3 |
| 20260510073821 | 59 | 250 | 0.0 | 1.0 | 0.00 | 0.17 | 0.01 | 88 | 1012.3 |
| 20260510073055 | 59 | 250 | 0.0 | 1.0 | 0.00 | 0.17 | 0.01 | 88 | 1012.2 |
| 20260510072548 | 59 | 250 | 0.0 | 1.0 | 0.00 | 0.17 | 0.01 | 88 | 1012.1 |
| 20260510072044 | 59 | 250 | 0.0 | 1.0 | 0.00 | 0.17 | 0.01 | 88 | 1012.1 |
| 20260510071802 | 59 | 250 | 0.0 | 1.0 | 0.00 | 0.17 | 0.01 | 88 | 1012.1 |
| 20260510071253 | 59 | 250 | 0.0 | 0.0 | 0.01 | 0.17 | 0.01 | 88 | 1012.1 |
| 20260510070750 | 59 | 250 | 0.0 | 0.0 | 0.01 | 0.17 | 0.01 | 88 | 1012.2 |
| 20260510070237 | 59 | 250 | 0.0 | 0.0 | 0.01 | 0.17 | 0.01 | 88 | 1012.2 |
| 20260510065513 | 59 | 250 | 0.0 | 0.0 | 0.01 | 0.17 | 0.01 | 88 | 1012.2 |
| 20260510065007 | 59 | 250 | 0.0 | 0.0 | 0.01 | 0.17 | 0.01 | 88 | 1012.5 |
| 20260510064502 | 59 | 250 | 0.0 | 0.0 | 0.01 | 0.17 | 0.01 | 88 | 1012.5 |
| 20260510063954 | 59 | 250 | 0.0 | 0.0 | 0.01 | 0.17 | 0.01 | 88 | 1012.2 |
| 20260510063449 | 59 | 250 | 0.0 | 1.0 | 0.01 | 0.17 | 0.01 | 88 | 1012.1 |
| 20260510062943 | 60 | 250 | 0.0 | 1.0 | 0.01 | 0.17 | 0.01 | 88 | 1012.1 |
| 20260510062437 | 60 | 250 | 0.0 | 1.0 | 0.01 | 0.17 | 0.01 | 88 | 1012.0 |
| 20260510061930 | 60 | 332 | 0.0 | 1.0 | 0.01 | 0.17 | 0.01 | 88 | 1012.1 |
| 20260510061425 | 60 | 332 | 0.0 | 1.0 | 0.00 | 0.16 | 0.01 | 88 | 1012.1 |
| 20260510061145 | 60 | 234 | 0.0 | 2.0 | 0.00 | 0.16 | 0.00 | 88 | 1012.3 |
| 20260510060413 | 60 | 234 | 0.0 | 2.0 | 0.00 | 0.16 | 0.00 | 88 | 1012.3 |
| 20260510055907 | 60 | 234 | 0.0 | 4.0 | 0.00 | 0.16 | 0.00 | 88 | 1012.0 |
| 20260510055850 | 60 | 239 | 1.0 | 4.0 | 0.00 | 0.16 | 0.00 | 88 | 1011.8 |
| 20260510054855 | 60 | 265 | 1.0 | 5.0 | 0.00 | 0.16 | 0.00 | 88 | 1011.8 |
| 20260510054348 | 60 | 319 | 1.0 | 4.0 | 0.00 | 0.16 | 0.00 | 88 | 1011.6 |
| 20260510053843 | 60 | 325 | 1.0 | 3.0 | 0.00 | 0.16 | 0.00 | 88 | 1011.6 |
| 20260510053337 | 60 | 330 | 1.0 | 5.0 | 0.00 | 0.16 | 0.00 | 88 | 1011.5 |
| 20260510052831 | 60 | 256 | 1.0 | 6.0 | 0.00 | 0.16 | 0.00 | 88 | 1011.5 |
| 20260510052325 | 60 | 329 | 1.0 | 6.0 | 0.02 | 0.16 | 0.00 | 88 | 1011.5 |
| 20260510051819 | 60 | 304 | 1.0 | 4.0 | 0.02 | 0.16 | 0.00 | 88 | 1011.6 |
| 20260510051313 | 61 | 250 | 1.0 | 6.0 | 0.03 | 0.16 | 0.00 | 87 | 1011.7 |
| 20260510050806 | 61 | 244 | 1.0 | 8.0 | 0.04 | 0.16 | 0.00 | 87 | 1011.6 |
| 20260510050301 | 61 | 188 | 1.0 | 8.0 | 0.04 | 0.16 | 0.00 | 87 | 1011.3 |
| 20260510045753 | 61 | 262 | 1.0 | 3.0 | 0.04 | 0.16 | 0.16 | 87 | 1011.0 |
| 20260510045247 | 61 | 285 | 1.0 | 2.0 | 0.05 | 0.16 | 0.16 | 87 | 1010.9 |
| 20260510044741 | 61 | 142 | 1.0 | 3.0 | 0.05 | 0.16 | 0.16 | 87 | 1010.9 |
| 20260510044236 | 61 | 130 | 1.0 | 3.0 | 0.06 | 0.16 | 0.16 | 87 | 1010.8 |
| 20260510043730 | 61 | 53 | 1.0 | 4.0 | 0.06 | 0.16 | 0.16 | 87 | 1010.8 |
| 20260510043224 | 61 | 148 | 1.0 | 4.0 | 0.07 | 0.16 | 0.16 | 87 | 1011.0 |
| 20260510042718 | 61 | 155 | 1.0 | 3.0 | 0.08 | 0.15 | 0.15 | 87 | 1011.1 |
| 20260510042212 | 61 | 336 | 2.0 | 8.0 | 0.08 | 0.14 | 0.14 | 87 | 1011.8 |
| 20260510041706 | 61 | 149 | 2.0 | 8.0 | 0.09 | 0.13 | 0.14 | 87 | 1011.9 |
| 20260510041200 | 61 | 333 | 2.0 | 8.0 | 0.12 | 0.13 | 0.13 | 87 | 1011.5 |
| 20260510040654 | 61 | 331 | 2.0 | 7.0 | 0.11 | 0.12 | 0.12 | 87 | 1011.5 |
| 20260510040148 | 61 | 38 | 3.0 | 10.0 | 0.11 | 0.12 | 0.12 | 87 | 1011.4 |
| 20260510035642 | 61 | 336 | 3.0 | 10.0 | 0.11 | 0.12 | 0.12 | 87 | 1011.2 |
| 20260510035136 | 61 | 344 | 2.0 | 9.0 | 0.10 | 0.11 | 0.11 | 87 | 1011.8 |
| 20260510034630 | 61 | 265 | 3.0 | 10.0 | 0.10 | 0.11 | 0.11 | 87 | 1012.1 |
| 20260510034124 | 62 | 338 | 3.0 | 10.0 | 0.09 | 0.10 | 0.10 | 86 | 1012.0 |
| 20260510033618 | 62 | 238 | 2.0 | 10.0 | 0.08 | 0.09 | 0.09 | 86 | 1012.0 |
| 20260510033112 | 62 | 223 | 3.0 | 17.0 | 0.07 | 0.08 | 0.08 | 85 | 1012.1 |
| 20260510032606 | 63 | 278 | 4.0 | 17.0 | 0.06 | 0.07 | 0.07 | 84 | 1012.2 |
| 20260510032100 | 64 | 201 | 5.0 | 19.0 | 0.05 | 0.07 | 0.06 | 82 | 1012.4 |
| 20260510031554 | 65 | 223 | 7.0 | 26.0 | 0.02 | 0.05 | 0.03 | 80 | 1012.2 |
| 20260510031048 | 67 | 129 | 9.0 | 26.0 | 0.00 | 0.03 | 0.01 | 76 | 1012.0 |
| 20260510030542 | 67 | 190 | 6.0 | 23.0 | 0.00 | 0.04 | 0.01 | 72 | 1011.5 |
| 20260510030521 | 67 | 203 | 1.0 | 13.0 | 0.00 | 0.05 | 0.01 | 71 | 1010.4 |
| 20260510025529 | 67 | 219 | 0.0 | 0.0 | 0.00 | 0.07 | 0.01 | 70 | 1009.3 |
| 20260510025024 | 67 | 219 | 0.0 | 0.0 | 0.00 | 0.08 | 0.01 | 69 | 1009.1 |
| 20260510024518 | 67 | 219 | 0.0 | 0.0 | 0.00 | 0.09 | 0.01 | 69 | 1009.0 |
| 20260510024018 | 67 | 219 | 0.0 | 0.0 | 0.00 | 0.10 | 0.01 | 68 | 1008.9 |
| 20260510023515 | 67 | 219 | 0.0 | 0.0 | 0.00 | 0.11 | 0.01 | 68 | 1008.8 |
| 20260510023015 | 67 | 219 | 0.0 | 0.0 | 0.00 | 0.13 | 0.01 | 67 | 1008.7 |
| 20260510022742 | 67 | 219 | 0.0 | 0.0 | 0.00 | 0.15 | 0.01 | 66 | 1008.6 |
| 20260510022010 | 67 | 219 | 0.0 | 0.0 | 0.00 | 0.18 | 0.01 | 65 | 1008.6 |
| 20260510021728 | 68 | 219 | 0.0 | 0.0 | 0.00 | 0.21 | 0.01 | 64 | 1008.5 |
| 20260510021006 | 68 | 219 | 0.0 | 0.0 | 0.00 | 0.23 | 0.01 | 64 | 1008.5 |
| 20260510020726 | 68 | 219 | 0.0 | 1.0 | 0.00 | 0.26 | 0.01 | 63 | 1008.4 |
| 20260510020002 | 68 | 219 | 0.0 | 1.0 | 0.00 | 0.27 | 0.01 | 63 | 1008.3 |
| 20260510015503 | 69 | 219 | 0.0 | 1.0 | 0.00 | 0.27 | 0.01 | 62 | 1008.2 |
| 20260510015001 | 69 | 219 | 0.0 | 1.0 | 0.00 | 0.29 | 0.01 | 61 | 1008.1 |
| 20260510014500 | 70 | 219 | 0.0 | 1.0 | 0.00 | 0.30 | 0.01 | 59 | 1008.0 |
| 20260510014155 | 71 | 219 | 0.0 | 0.0 | 0.00 | 0.30 | 0.01 | 58 | 1007.9 |
| 20260510014043 | 70 | 219 | 0.0 | 1.0 | 0.00 | 0.30 | 0.01 | 59 | 1007.9 |
| 20260510013443 | 71 | 219 | 0.0 | 0.0 | 0.00 | 0.30 | 0.01 | 58 | 1007.8 |
| 20260510012457 | 72 | 219 | 0.0 | 0.0 | 0.00 | 0.30 | 0.01 | 56 | 1007.9 |
| 20260510011958 | 72 | 219 | 0.0 | 0.0 | 0.00 | 0.30 | 0.01 | 55 | 1007.8 |
| 20260510011453 | 73 | 219 | 0.0 | 0.0 | 0.00 | 0.30 | 0.01 | 54 | 1007.9 |
| 20260510010953 | 74 | 219 | 0.0 | 0.0 | 0.00 | 0.30 | 0.01 | 52 | 1007.8 |
| 20260510010454 | 74 | 219 | 0.0 | 0.0 | 0.00 | 0.30 | 0.01 | 51 | 1007.8 |
| 20260510005953 | 75 | 219 | 0.0 | 1.0 | 0.00 | 0.30 | 0.01 | 51 | 1007.8 |
| 20260510005453 | 75 | 219 | 0.0 | 1.0 | 0.00 | 0.30 | 0.01 | 49 | 1007.8 |
| 20260510004953 | 76 | 219 | 0.0 | 1.0 | 0.00 | 0.31 | 0.01 | 49 | 1007.6 |
| 20260510004454 | 76 | 219 | 0.0 | 0.0 | 0.00 | 0.31 | 0.01 | 48 | 1007.6 |
| 20260510003954 | 77 | 235 | 0.0 | 0.0 | 0.00 | 0.31 | 0.01 | 47 | 1007.5 |
| 20260510003453 | 78 | 219 | 0.0 | 0.0 | 0.00 | 0.31 | 0.01 | 46 | 1007.5 |
| 20260510002950 | 78 | 219 | 0.0 | 1.0 | 0.00 | 0.31 | 0.01 | 46 | 1007.5 |
| 20260510002449 | 78 | 219 | 0.0 | 2.0 | 0.00 | 0.31 | 0.01 | 44 | 1007.5 |
| 20260510001948 | 79 | 219 | 0.0 | 2.0 | 0.00 | 0.31 | 0.01 | 43 | 1007.4 |
| 20260510001448 | 79 | 219 | 1.0 | 3.0 | 0.00 | 0.31 | 0.01 | 41 | 1007.4 |
| 20260510000951 | 79 | 229 | 2.0 | 5.0 | 0.00 | 0.31 | 0.01 | 40 | 1007.4 |
| 20260510000450 | 80 | 193 | 2.0 | 5.0 | 0.00 | 0.31 | 0.01 | 39 | 1007.3 |
| 20260509235948 | 80 | 191 | 2.0 | 7.0 | 0.00 | 0.31 | 0.01 | 38 | 1007.2 |
| 20260509235926 | 81 | 198 | 2.0 | 7.0 | 0.00 | 0.31 | 0.01 | 38 | 1007.2 |
| 20260509234946 | 81 | 207 | 1.0 | 4.0 | 0.00 | 0.31 | 0.01 | 38 | 1007.2 |
| 20260509234447 | 81 | 200 | 1.0 | 6.0 | 0.00 | 0.31 | 0.01 | 37 | 1007.2 |
| 20260509234201 | 82 | 204 | 2.0 | 6.0 | 0.00 | 0.31 | 0.01 | 36 | 1007.2 |
| 20260509233435 | 82 | 202 | 1.0 | 4.0 | 0.00 | 0.31 | 0.01 | 36 | 1007.2 |
| 20260509232928 | 82 | 192 | 1.0 | 4.0 | 0.00 | 0.31 | 0.01 | 36 | 1007.2 |
| 20260509232423 | 82 | 192 | 1.0 | 3.0 | 0.00 | 0.31 | 0.01 | 36 | 1007.2 |
| 20260509231917 | 82 | 192 | 2.0 | 4.0 | 0.00 | 0.31 | 0.01 | 35 | 1007.2 |
| 20260509231411 | 83 | 209 | 2.0 | 6.0 | 0.00 | 0.31 | 0.01 | 33 | 1007.2 |
| 20260509231125 | 83 | 185 | 2.0 | 6.0 | 0.00 | 0.31 | 0.01 | 35 | 1007.2 |
| 20260509230359 | 83 | 236 | 2.0 | 5.0 | 0.00 | 0.31 | 0.01 | 35 | 1007.1 |
| 20260509225853 | 83 | 199 | 2.0 | 6.0 | 0.00 | 0.31 | 0.01 | 35 | 1007.1 |
| 20260509225347 | 83 | 187 | 2.0 | 9.0 | 0.00 | 0.31 | 0.01 | 34 | 1007.0 |
| 20260509224841 | 83 | 186 | 3.0 | 9.0 | 0.00 | 0.31 | 0.01 | 35 | 1007.0 |
| 20260509224335 | 83 | 187 | 2.0 | 7.0 | 0.00 | 0.31 | 0.01 | 35 | 1007.0 |
| 20260509223829 | 82 | 201 | 2.0 | 7.0 | 0.00 | 0.31 | 0.01 | 34 | 1007.1 |
| 20260509223323 | 83 | 209 | 2.0 | 7.0 | 0.00 | 0.31 | 0.01 | 35 | 1007.1 |
| 20260509222816 | 83 | 189 | 2.0 | 7.0 | 0.00 | 0.31 | 0.01 | 36 | 1007.2 |
| 20260509222310 | 82 | 184 | 2.0 | 7.0 | 0.00 | 0.31 | 0.01 | 36 | 1007.1 |
| 20260509221804 | 82 | 209 | 2.0 | 10.0 | 0.00 | 0.31 | 0.01 | 35 | 1007.1 |
| 20260509221258 | 82 | 194 | 2.0 | 10.0 | 0.00 | 0.31 | 0.01 | 35 | 1007.2 |
| 20260509220754 | 82 | 242 | 2.0 | 6.0 | 0.00 | 0.31 | 0.01 | 36 | 1007.1 |
| 20260509220512 | 81 | 213 | 3.0 | 7.0 | 0.00 | 0.31 | 0.01 | 34 | 1007.1 |